FW6618 Weather Reports


Display with metric or nautical units.
time (UTC)temp
F
wind
direction
speed
MPH
gust
MPH
rain 1hr
in
rain 24hr
in
rain mn
in
humidity
%
barometer
mb
20260906191543 70 98 3.0 9.0 0.00 0.01 0.01 66 1018.1
20260906191022 69 194 2.0 9.0 0.00 0.01 0.01 63 1018.0
20260906190521 70 246 3.0 9.0 0.00 0.01 0.01 65 1017.9
20260906190107 70 47 2.0 8.0 0.00 0.01 0.01 67 1017.9
20260906185517 70 211 3.0 8.0 0.00 0.01 0.01 64 1017.8
20260906185023 70 256 2.0 7.0 0.00 0.01 0.01 65 1018.0
20260906184541 70 264 1.0 7.0 0.00 0.01 0.01 66 1017.8
20260906184024 70 213 3.0 7.0 0.00 0.01 0.01 63 1017.9
20260906183524 70 263 2.0 7.0 0.00 0.01 0.01 67 1018.1
20260906183044 71 311 2.0 4.0 0.00 0.01 0.01 68 1018.1
20260906182523 70 297 2.0 9.0 0.00 0.01 0.01 66 1018.1
20260906182023 70 282 2.0 9.0 0.00 0.01 0.01 68 1018.0
20260906181544 70 283 1.0 4.0 0.00 0.01 0.01 69 1018.1
20260906181024 69 92 2.0 4.0 0.00 0.01 0.01 70 1018.1
20260906180518 68 316 2.0 3.0 0.00 0.01 0.01 70 1018.2
20260906180041 67 328 1.0 3.0 0.00 0.01 0.01 71 1018.2
20260906175522 67 0 1.0 3.0 0.00 0.01 0.01 71 1018.3
20260906175026 68 209 0.0 4.0 0.00 0.01 0.01 71 1018.2
20260906174544 69 94 0.0 4.0 0.00 0.01 0.01 69 1018.1
20260906174023 69 132 2.0 6.0 0.00 0.01 0.01 68 1018.2
20260906173521 69 188 0.0 6.0 0.00 0.01 0.01 70 1018.3
20260906173048 69 132 1.0 5.0 0.00 0.01 0.01 71 1018.4
20260906172518 68 128 1.0 5.0 0.00 0.01 0.01 70 1018.3
20260906172019 68 317 2.0 4.0 0.00 0.01 0.01 70 1018.4
20260906171544 68 42 1.0 4.0 0.00 0.01 0.01 74 1018.4
20260906171019 67 8 1.0 5.0 0.00 0.01 0.01 70 1018.4
20260906170520 66 55 1.0 5.0 0.00 0.01 0.01 75 1018.4
20260906170040 65 290 2.0 5.0 0.00 0.01 0.01 76 1018.6
20260906165520 65 115 1.0 4.0 0.00 0.01 0.01 75 1018.4
20260906165023 65 258 1.0 4.0 0.00 0.01 0.01 74 1018.4
20260906164541 65 114 1.0 6.0 0.00 0.01 0.01 75 1018.5
20260906164022 65 238 1.0 6.0 0.00 0.01 0.01 75 1018.4
20260906163523 65 327 1.0 3.0 0.00 0.01 0.01 74 1018.4
20260906163044 65 314 1.0 3.0 0.00 0.01 0.01 74 1018.5
20260906162521 65 308 0.0 5.0 0.00 0.01 0.01 74 1018.6
20260906162019 66 2 1.0 5.0 0.00 0.01 0.01 75 1018.5
20260906161542 66 346 1.0 6.0 0.00 0.01 0.01 73 1018.6
20260906161020 67 267 1.0 6.0 0.00 0.01 0.01 74 1018.6
20260906160525 68 302 3.0 9.0 0.00 0.01 0.01 72 1018.5
20260906160043 68 321 2.0 9.0 0.00 0.01 0.01 74 1018.4
20260906155530 67 328 2.0 8.0 0.00 0.01 0.01 71 1018.6
20260906155020 67 89 1.0 5.0 0.00 0.01 0.01 73 1018.5
20260906154544 67 259 1.0 4.0 0.00 0.01 0.01 76 1018.6
20260906154026 67 250 2.0 4.0 0.00 0.01 0.01 75 1018.6
20260906153524 68 224 1.0 7.0 0.00 0.01 0.01 71 1018.6
20260906153042 68 167 2.0 8.0 0.00 0.01 0.01 72 1018.4
20260906152518 67 278 2.0 8.0 0.00 0.01 0.01 77 1018.5
20260906152019 67 210 2.0 6.0 0.00 0.01 0.01 75 1018.4
20260906151541 67 313 1.0 8.0 0.00 0.01 0.01 77 1018.3
20260906151023 67 276 3.0 8.0 0.00 0.01 0.01 77 1018.3
20260906150520 67 326 2.0 7.0 0.00 0.01 0.01 78 1018.2
20260906150040 67 119 3.0 7.0 0.00 0.01 0.01 76 1018.3
20260906145526 67 338 1.0 6.0 0.00 0.01 0.01 76 1018.3
20260906145028 67 245 1.0 12.0 0.00 0.01 0.01 75 1018.3
20260906144544 66 313 3.0 12.0 0.00 0.01 0.01 76 1018.1
20260906144019 66 244 2.0 6.0 0.00 0.01 0.01 79 1018.2
20260906143523 66 300 1.0 6.0 0.00 0.01 0.01 81 1018.1
20260906143043 65 78 3.0 6.0 0.00 0.01 0.01 79 1018.2
20260906142523 65 113 2.0 6.0 0.00 0.01 0.01 81 1018.2
20260906142022 65 210 1.0 6.0 0.00 0.01 0.01 82 1018.2
20260906141542 65 137 2.0 6.0 0.00 0.01 0.01 82 1018.2
20260906141018 65 249 2.0 6.0 0.00 0.01 0.01 83 1018.1
20260906140526 65 293 2.0 6.0 0.00 0.01 0.01 81 1018.1
20260906140048 65 299 1.0 5.0 0.00 0.01 0.01 84 1018.2
20260906135519 64 298 1.0 5.0 0.00 0.01 0.01 83 1018.2
20260906135021 64 113 0.0 3.0 0.00 0.01 0.01 85 1018.2
20260906134544 64 249 1.0 4.0 0.00 0.01 0.01 85 1018.2
20260906134024 64 103 0.0 4.0 0.00 0.01 0.01 86 1018.3
20260906133521 63 242 1.0 4.0 0.00 0.01 0.01 86 1018.3
20260906133059 63 79 0.0 5.0 0.00 0.01 0.01 88 1018.2
20260906132519 62 316 1.0 6.0 0.00 0.01 0.01 87 1018.1
20260906132017 62 247 1.0 6.0 0.00 0.01 0.01 87 1018.1
20260906131541 63 224 1.0 6.0 0.00 0.01 0.01 87 1018.0
20260906131019 62 238 2.0 6.0 0.00 0.01 0.01 87 1018.1
20260906130519 62 0 1.0 5.0 0.00 0.01 0.01 87 1018.1
20260906130051 62 128 0.0 5.0 0.00 0.01 0.01 89 1018.0
20260906125521 62 269 1.0 5.0 0.00 0.01 0.01 90 1018.2
20260906125021 61 326 1.0 5.0 0.00 0.01 0.01 91 1018.2
20260906124547 61 322 0.0 3.0 0.00 0.01 0.01 92 1018.1
20260906124021 60 11 1.0 4.0 0.00 0.01 0.01 92 1018.1
20260906123523 60 224 1.0 4.0 0.00 0.01 0.01 93 1018.1
20260906123044 59 147 1.0 3.0 0.00 0.01 0.01 94 1018.1
20260906122524 59 217 1.0 3.0 0.00 0.01 0.01 95 1018.0
20260906122022 59 306 1.0 2.0 0.00 0.01 0.01 95 1017.9
20260906121543 59 122 0.0 2.0 0.00 0.01 0.01 96 1018.0
20260906121023 58 0 0.0 1.0 0.00 0.01 0.01 97 1017.9
20260906120524 58 0 0.0 1.0 0.00 0.01 0.01 97 1018.0
20260906120047 58 131 0.0 1.0 0.00 0.01 0.01 97 1018.1
20260906115521 57 136 0.0 1.0 0.00 0.01 0.01 97 1018.0
20260906115024 57 0 0.0 1.0 0.00 0.01 0.01 97 1017.9
20260906114546 57 272 0.0 1.0 0.00 0.01 0.01 97 1017.9
20260906114023 57 0 0.0 1.0 0.00 0.01 0.01 97 1017.7
20260906113523 57 0 0.0 2.0 0.00 0.01 0.01 97 1017.6
20260906113045 57 0 0.0 2.0 0.00 0.01 0.01 97 1017.6
20260906112525 57 0 0.0 2.0 0.00 0.01 0.01 97 1017.7
20260906112024 57 0 0.0 1.0 0.00 0.01 0.01 97 1017.7
20260906111551 57 268 0.0 1.0 0.00 0.01 0.01 97 1017.5
20260906111020 57 0 0.0 1.0 0.00 0.01 0.01 97 1017.4
20260906110520 57 0 0.0 1.0 0.00 0.01 0.01 97 1017.3
20260906110051 57 267 0.0 1.0 0.00 0.01 0.01 97 1017.3
20260906105522 57 0 0.0 1.0 0.00 0.01 0.01 96 1017.2
20260906105023 57 0 0.0 1.0 0.00 0.01 0.01 96 1017.1
20260906104540 57 0 0.0 1.0 0.00 0.01 0.01 96 1017.0
20260906104024 57 0 0.0 1.0 0.00 0.01 0.01 96 1016.9
20260906103523 57 243 0.0 1.0 0.01 0.01 0.01 96 1016.9
20260906103044 57 0 0.0 2.0 0.01 0.01 0.01 96 1016.9
20260906102524 57 0 0.0 2.0 0.01 0.01 0.01 96 1016.9
20260906102020 58 245 0.0 1.0 0.01 0.01 0.01 96 1016.9
20260906101545 58 328 0.0 2.0 0.01 0.01 0.01 96 1016.8
20260906101024 58 0 0.0 2.0 0.01 0.01 0.01 96 1016.8
20260906100528 58 333 0.0 2.0 0.01 0.01 0.01 96 1016.8
20260906100047 58 0 0.0 0.0 0.01 0.01 0.01 96 1016.7
20260906095520 58 0 0.0 0.0 0.01 0.01 0.01 96 1016.8
20260906095027 58 305 0.0 1.0 0.01 0.01 0.01 96 1016.7
20260906094551 58 0 0.0 1.0 0.01 0.01 0.01 95 1016.7
20260906094023 58 0 0.0 1.0 0.01 0.01 0.01 95 1016.6
20260906093526 58 0 0.0 0.0 0.00 0.00 0.00 95 1016.5
20260906093056 58 0 0.0 0.0 0.00 0.00 0.00 96 1016.4
20260906092520 58 0 0.0 0.0 0.00 0.00 0.00 96 1016.5
20260906092025 58 0 0.0 0.0 0.00 0.00 0.00 96 1016.4
20260906091543 58 0 0.0 0.0 0.00 0.00 0.00 96 1016.2
20260906091019 58 0 0.0 0.0 0.00 0.00 0.00 96 1016.2
20260906090520 58 0 0.0 0.0 0.00 0.00 0.00 96 1016.1
20260906090109 58 0 0.0 0.0 0.00 0.00 0.00 95 1016.0
20260906085519 58 0 0.0 0.0 0.00 0.00 0.00 95 1016.0
20260906085025 58 0 0.0 0.0 0.00 0.00 0.00 96 1015.9
20260906084552 58 0 0.0 0.0 0.00 0.00 0.00 95 1015.9
20260906084025 58 0 0.0 0.0 0.00 0.00 0.00 95 1016.0
20260906083524 58 0 0.0 0.0 0.00 0.00 0.00 95 1015.9
20260906083046 58 0 0.0 0.0 0.00 0.00 0.00 95 1015.9
20260906082523 58 0 0.0 0.0 0.00 0.00 0.00 95 1015.9
20260906082019 58 0 0.0 0.0 0.00 0.00 0.00 95 1015.9
20260906081543 58 0 0.0 0.0 0.00 0.00 0.00 95 1015.8
20260906081021 58 0 0.0 0.0 0.00 0.00 0.00 95 1015.8
20260906080524 58 0 0.0 0.0 0.00 0.00 0.00 95 1015.7
20260906080043 58 0 0.0 0.0 0.00 0.00 0.00 95 1015.9
20260906075517 58 0 0.0 0.0 0.00 0.00 0.00 95 1015.8
20260906075024 58 0 0.0 0.0 0.00 0.00 0.00 95 1015.8
20260906074550 58 0 0.0 0.0 0.00 0.00 0.00 95 1015.8
20260906074023 58 0 0.0 0.0 0.00 0.00 0.00 95 1015.8
20260906073524 58 0 0.0 0.0 0.00 0.00 0.00 95 1015.8
20260906073045 58 0 0.0 0.0 0.00 0.00 0.00 95 1015.8
20260906072525 58 0 0.0 0.0 0.00 0.00 0.00 95 1015.7
20260906072020 58 0 0.0 0.0 0.00 0.00 0.00 95 1015.6
20260906071543 58 0 0.0 0.0 0.00 0.00 0.00 95 1015.6
20260906071021 58 0 0.0 0.0 0.00 0.00 0.00 95 1015.6
20260906070522 58 0 0.0 0.0 0.00 0.00 0.00 95 1015.6
20260906070042 58 0 0.0 0.0 0.00 0.00 0.00 95 1015.6
20260906065527 58 0 0.0 0.0 0.00 0.00 0.00 95 1015.7
20260906065026 58 0 0.0 0.0 0.00 0.00 0.00 95 1015.8
20260906064543 58 0 0.0 0.0 0.00 0.00 0.00 95 1015.9
20260906064025 58 0 0.0 0.0 0.00 0.00 0.00 94 1015.8
20260906063526 58 0 0.0 0.0 0.00 0.00 0.00 95 1015.8
20260906063040 58 0 0.0 0.0 0.00 0.00 0.00 95 1015.9
20260906062523 58 0 0.0 0.0 0.00 0.00 0.00 95 1015.7
20260906062024 58 0 0.0 0.0 0.00 0.00 0.00 95 1015.9
20260906061548 58 0 0.0 0.0 0.00 0.00 0.00 95 1016.0
20260906061023 58 0 0.0 0.0 0.00 0.00 0.00 95 1015.9
20260906060524 58 0 0.0 0.0 0.00 0.00 0.00 94 1015.8
20260906060044 58 0 0.0 0.0 0.00 0.00 0.00 94 1015.8
20260906055523 58 0 0.0 0.0 0.00 0.00 0.00 94 1015.8
20260906055023 58 0 0.0 0.0 0.00 0.00 0.00 94 1015.9
20260906054546 58 0 0.0 0.0 0.00 0.00 0.00 94 1015.8
20260906054021 58 0 0.0 0.0 0.00 0.00 0.00 94 1016.0
20260906053530 59 0 0.0 0.0 0.00 0.00 0.00 94 1015.9
20260906053049 59 0 0.0 0.0 0.00 0.00 0.00 94 1016.0
20260906052524 59 0 0.0 0.0 0.00 0.00 0.00 94 1016.1
20260906052024 59 0 0.0 0.0 0.00 0.00 0.00 94 1016.0
20260906051545 59 0 0.0 0.0 0.00 0.00 0.00 94 1015.9
20260906051024 59 0 0.0 1.0 0.00 0.00 0.00 94 1016.1
20260906050523 59 0 0.0 1.0 0.00 0.00 0.00 94 1016.0
20260906050044 59 0 0.0 1.0 0.00 0.00 0.00 93 1015.9
20260906045520 59 0 0.0 0.0 0.00 0.00 0.00 94 1016.0
20260906045023 59 0 0.0 3.0 0.00 0.00 0.00 94 1016.0
20260906044542 59 313 0.0 3.0 0.00 0.00 0.00 93 1015.9
20260906044018 59 325 0.0 2.0 0.00 0.00 0.00 93 1015.8
20260906043520 59 0 0.0 2.0 0.00 0.00 0.00 94 1015.9
20260906043039 59 29 0.0 2.0 0.00 0.00 0.00 95 1015.8
20260906042524 59 0 0.0 1.0 0.00 0.00 0.00 95 1015.8
20260906042024 59 265 0.0 1.0 0.00 0.00 0.00 95 1016.0
20260906041552 59 0 0.0 4.0 0.00 0.00 0.00 95 1016.0
20260906041023 59 0 1.0 4.0 0.00 0.00 0.00 96 1016.1
20260906040521 59 347 1.0 3.0 0.00 0.00 0.00 97 1015.8
20260906040043 59 0 0.0 1.0 0.00 0.00 0.00 97 1015.9
20260906035522 59 0 0.0 1.0 0.00 0.00 0.00 97 1015.7
20260906035019 59 0 0.0 0.0 0.00 0.00 0.00 97 1015.8
20260906034544 58 0 0.0 0.0 0.00 0.00 0.00 97 1015.8
20260906034025 58 0 0.0 0.0 0.00 0.00 0.00 97 1015.8
20260906033523 58 0 0.0 0.0 0.00 0.00 0.00 97 1015.6
20260906033046 58 0 0.0 0.0 0.00 0.00 0.00 97 1015.5
20260906032520 58 0 0.0 0.0 0.00 0.00 0.00 97 1015.5
20260906032023 58 0 0.0 0.0 0.00 0.00 0.00 97 1015.4
20260906031542 58 0 0.0 0.0 0.00 0.00 0.00 97 1015.4
20260906031022 58 0 0.0 0.0 0.00 0.00 0.00 97 1015.3
20260906030521 58 0 0.0 0.0 0.00 0.00 0.00 97 1015.2
20260906030046 58 0 0.0 0.0 0.00 0.00 0.00 97 1015.3
20260906025521 58 0 0.0 0.0 0.00 0.00 0.00 97 1015.2
20260906025024 58 0 0.0 0.0 0.00 0.00 0.00 97 1015.2
20260906024606 58 0 0.0 0.0 0.00 0.00 0.00 97 1015.3
20260906024024 58 0 0.0 0.0 0.00 0.00 0.00 97 1015.2
20260906023522 58 0 0.0 0.0 0.00 0.00 0.00 97 1015.1
20260906023041 58 0 0.0 0.0 0.00 0.00 0.00 97 1015.2
20260906022521 58 0 0.0 0.0 0.00 0.00 0.00 97 1015.1
20260906022022 58 0 0.0 0.0 0.00 0.00 0.00 97 1015.1
20260906021542 58 0 0.0 0.0 0.00 0.00 0.00 97 1015.1
20260906021020 58 0 0.0 0.0 0.00 0.00 0.00 97 1015.2
20260906020524 58 0 0.0 0.0 0.00 0.00 0.00 97 1015.1
20260906020045 58 0 0.0 0.0 0.00 0.00 0.00 97 1015.0
20260906015522 58 0 0.0 0.0 0.00 0.00 0.00 97 1015.1
20260906015024 58 0 0.0 0.0 0.00 0.00 0.00 97 1015.0
20260906014550 58 0 0.0 0.0 0.00 0.00 0.00 97 1015.1
20260906014024 58 0 0.0 0.0 0.00 0.00 0.00 97 1015.1
20260906013526 58 0 0.0 0.0 0.00 0.00 0.00 97 1015.0
20260906013041 58 0 0.0 0.0 0.00 0.00 0.00 97 1015.0
20260906012518 59 0 0.0 0.0 0.00 0.00 0.00 97 1015.0
20260906012022 59 0 0.0 0.0 0.00 0.00 0.00 97 1015.1
20260906011552 59 0 0.0 0.0 0.00 0.00 0.00 97 1015.1
20260906011024 59 0 0.0 0.0 0.00 0.00 0.00 96 1015.2
20260906010527 59 0 0.0 0.0 0.00 0.00 0.00 96 1015.1
20260906010115 59 0 0.0 0.0 0.00 0.00 0.00 97 1015.1
20260906005524 59 0 0.0 0.0 0.00 0.00 0.00 97 1015.2
20260906005024 59 0 0.0 0.0 0.00 0.00 0.00 97 1015.1
20260906004547 59 0 0.0 0.0 0.00 0.00 0.00 96 1015.1
20260906004024 59 0 0.0 0.0 0.00 0.00 0.00 96 1015.1
20260906003521 59 0 0.0 0.0 0.00 0.00 0.00 96 1015.0
20260906003045 60 0 0.0 0.0 0.00 0.00 0.00 96 1015.0
20260906002518 60 0 0.0 0.0 0.00 0.00 0.00 96 1014.9
20260906002026 60 0 0.0 0.0 0.00 0.00 0.00 96 1014.9
20260906001600 60 0 0.0 0.0 0.00 0.00 0.00 96 1014.9
20260906001027 60 0 0.0 0.0 0.00 0.00 0.00 96 1014.9
20260906000524 60 0 0.0 0.0 0.00 0.00 0.00 95 1014.8
20260906000042 61 0 0.0 0.0 0.00 0.00 0.00 95 1014.7
20260905235524 61 0 0.0 0.0 0.00 0.00 0.00 95 1014.7
20260905235024 61 0 0.0 0.0 0.00 0.00 0.00 95 1014.7
20260905234544 61 0 0.0 0.0 0.00 0.00 0.00 95 1014.6
20260905234021 61 0 0.0 0.0 0.00 0.00 0.00 95 1014.6
20260905233518 62 0 0.0 0.0 0.00 0.00 0.00 95 1014.6
20260905233041 62 0 0.0 0.0 0.00 0.00 0.00 95 1014.5
20260905232527 62 0 0.0 0.0 0.00 0.00 0.00 94 1014.4
20260905232023 62 0 0.0 0.0 0.00 0.00 0.00 94 1014.4
20260905231546 62 0 0.0 0.0 0.00 0.00 0.00 94 1014.4
20260905231024 63 0 0.0 0.0 0.00 0.00 0.00 93 1014.3
20260905230524 63 0 0.0 0.0 0.00 0.00 0.00 93 1014.3
20260905230041 63 0 0.0 0.0 0.00 0.00 0.00 93 1014.3
20260905225519 64 0 0.0 0.0 0.00 0.00 0.00 92 1014.2
20260905225019 64 0 0.0 0.0 0.00 0.00 0.00 93 1014.3
20260905224547 64 0 0.0 1.0 0.00 0.00 0.00 92 1014.2
20260905224024 64 0 0.0 1.0 0.00 0.00 0.00 92 1014.4
20260905223527 64 0 0.0 1.0 0.00 0.00 0.00 91 1014.2
20260905223047 65 299 0.0 1.0 0.00 0.00 0.00 91 1014.2
20260905222522 65 0 0.0 1.0 0.00 0.00 0.00 91 1014.3
20260905222020 66 299 0.0 1.0 0.00 0.00 0.00 90 1014.1
20260905221551 66 0 0.0 1.0 0.00 0.00 0.00 89 1014.2
20260905221022 67 0 0.0 2.0 0.00 0.00 0.00 87 1014.3
20260905220521 67 299 0.0 2.0 0.00 0.00 0.00 84 1014.2
20260905220047 68 295 0.0 3.0 0.00 0.00 0.00 82 1014.1
20260905215524 68 331 1.0 3.0 0.00 0.00 0.00 82 1014.0
20260905215023 69 300 1.0 3.0 0.00 0.00 0.00 84 1014.0
20260905214544 69 351 1.0 3.0 0.00 0.00 0.00 83 1013.9
20260905214024 69 320 1.0 3.0 0.00 0.00 0.00 84 1014.0
20260905213521 69 302 0.0 2.0 0.00 0.00 0.00 87 1014.0
20260905213052 67 326 0.0 3.0 0.00 0.00 0.00 87 1014.0
20260905212521 67 87 0.0 3.0 0.00 0.00 0.00 85 1013.9
20260905212019 68 335 1.0 3.0 0.00 0.00 0.00 85 1013.9
20260905211544 68 18 0.0 4.0 0.00 0.00 0.00 84 1013.9
20260905211019 68 250 0.0 4.0 0.00 0.00 0.00 83 1013.9
20260905210518 69 54 1.0 6.0 0.00 0.00 0.00 83 1013.9
20260905210040 69 231 2.0 6.0 0.00 0.00 0.00 86 1013.7
20260905205527 69 224 1.0 4.0 0.00 0.00 0.00 85 1013.8
20260905205024 68 323 1.0 4.0 0.00 0.00 0.00 87 1013.7
20260905204543 68 149 2.0 4.0 0.00 0.00 0.00 87 1013.8
20260905204023 67 288 0.0 4.0 0.00 0.00 0.00 89 1013.7
20260905203521 67 0 0.0 4.0 0.00 0.00 0.00 90 1013.7
20260905203052 66 0 0.0 2.0 0.00 0.00 0.00 91 1013.8
20260905202521 67 304 0.0 2.0 0.00 0.00 0.00 90 1013.7
20260905202020 67 0 0.0 4.0 0.00 0.00 0.00 90 1013.7
20260905201554 67 0 0.0 5.0 0.00 0.00 0.00 89 1013.6
20260905201017 68 0 1.0 5.0 0.00 0.00 0.00 87 1013.6
20260905200520 69 333 1.0 4.0 0.00 0.00 0.00 85 1013.6
20260905200044 69 150 1.0 3.0 0.00 0.00 0.00 86 1013.5
20260905195526 68 317 1.0 3.0 0.00 0.00 0.00 86 1013.4
20260905195026 68 135 0.0 4.0 0.00 0.00 0.00 86 1013.6
20260905194545 68 0 1.0 4.0 0.00 0.00 0.00 84 1013.6
20260905194023 69 0 0.0 4.0 0.00 0.00 0.00 84 1013.6
20260905193522 69 22 0.0 4.0 0.00 0.00 0.00 82 1013.6
20260905193042 70 1 1.0 3.0 0.00 0.00 0.00 80 1013.7
20260905192519 70 281 0.0 2.0 0.00 0.00 0.00 80 1013.4
20260905192019 70 206 0.0 5.0 0.00 0.00 0.00 81 1013.5